User: anonymous   Login
Location: Unspecified
(0.0000°N, 0.0000°E)
Time: 16:24:53
(UTC+00:00)
Language:

ISAT - Orbit

View from above orbital plane
View from above orbital plane
View from above satellite
View from above satellite

Ground track
Ground track

The orbit data is extracted from the following two-line orbital elements,

1 43879U 18111D   21334.05648930  .00000281  00000-0  29495-4 0  9995
2 43879  97.6744 238.2940 0011466 271.4596  88.5314 14.96923683157823
Epoch (UTC): 30 November 2021 01:21:20
Eccentricity: 0.0011466
inclination: 97.6744°
perigee height: 568 km
apogee height: 584 km
right ascension of ascending node: 238.2940°
argument of perigee: 271.4596°
revolutions per day: 14.96923683
mean anomaly at epoch: 88.5314°
orbit number at epoch: 15782

The dashed part of the orbit path shows where the satellite is in the earth's shadow,  

DLR